Location: Caltech
(34.1382°N, 118.1253°W)
Time: 19:23:50
(UTC-08:00)

RS-15 - Visible Passes

Search period start: 08 February 2016 00:00
Search period end: 18 February 2016 00:00
Orbit: 1886 x 2159 km, 64.8° (Epoch: 08 February)

Date Brightness Start Highest point End Pass type
(mag) Time Alt. Az. Time Alt. Az. Time Alt. Az.
08 Feb 9.1 18:26:05 10° NNW 18:34:54 22° NNE 18:40:27 17° ENE visible
08 Feb 8.1 20:37:44 10° NNW 20:48:15 66° NNE 20:48:15 66° NNE visible
08 Feb 9.6 22:51:39 10° NW 22:56:03 21° WNW 22:56:03 21° WNW visible
09 Feb 9.3 17:50:10 10° NNW 17:57:47 18° NNE 18:05:28 10° ENE visible
09 Feb 8.1 20:01:46 10° NNW 20:13:45 57° NE 20:14:08 57° ENE visible
09 Feb 9.2 22:14:52 10° NW 22:21:56 33° WNW 22:21:56 33° WNW visible
10 Feb 8.3 19:25:50 10° NNW 19:37:22 45° NE 19:40:06 41° E visible
10 Feb 8.7 21:38:22 10° NW 21:47:55 49° W 21:47:55 49° W visible
11 Feb 8.6 18:49:57 10° NNW 19:00:50 36° NE 19:06:10 26° E visible
11 Feb 8.2 21:02:05 10° NNW 21:14:00 69° WSW 21:14:00 69° WSW visible
11 Feb 10.0 23:20:32 10° WNW 23:21:51 11° W 23:21:51 11° W visible
12 Feb 8.9 18:14:05 10° NNW 18:24:07 29° NE 18:32:23 15° E visible
12 Feb 8.0 20:25:56 10° NNW 20:38:14 87° WSW 20:40:14 70° SSE visible
12 Feb 9.7 22:41:25 10° WNW 22:48:04 19° W 22:48:04 19° W visible
13 Feb 9.1 17:38:12 10° NNW 17:47:13 23° NE 17:56:18 10° E visible
13 Feb 8.0 19:49:53 10° NNW 20:02:09 75° ENE 20:06:37 47° SE visible
13 Feb 9.3 22:03:58 10° NW 22:13:30 28° WSW 22:14:29 27° WSW visible
14 Feb 8.2 19:13:54 10° NNW 19:25:57 59° NE 19:33:13 28° SE visible
14 Feb 9.0 21:27:07 10° NW 21:37:53 38° WSW 21:41:07 33° SW visible
15 Feb 8.4 18:37:59 10° NNW 18:49:36 47° NE 19:00:08 13° ESE visible
15 Feb 8.7 20:50:35 10° NW 21:02:09 51° WSW 21:08:05 31° SSW visible
16 Feb 8.6 18:02:05 10° NNW 18:13:05 37° NE 18:24:08 10° ESE visible
16 Feb 8.3 20:14:16 10° NW 20:26:19 67° WSW 20:35:32 20° S visible
16 Feb 10.1 22:33:40 10° W 22:36:28 11° W 22:39:18 10° WSW visible
17 Feb 8.1 19:38:06 10° NNW 19:50:23 85° WSW 20:02:42 10° SSE visible
17 Feb 9.9 21:53:53 10° WNW 22:01:05 18° W 22:08:19 10° SW visible
